[Iaude] MPEC C85: 2024 BK3 [a=2.53,e=0.51,i=6.5,H=22.06]

mpec at cfa.harvard.edu mpec at cfa.harvard.edu
Thu Feb 8 09:10:42 EST 2024


M.P.E.C. 2024-C85                              Issued 2024 February 8, 14:09 UT

     The Minor Planet Electronic Circulars contain information on unusual
         minor planets, routine data on comets and natural satellites,
         and occasional editorial announcements.  They are published
    on behalf of Division F of the International Astronomical Union by the
          Minor Planet Center, Smithsonian Astrophysical Observatory,
                          Cambridge, MA 02138, U.S.A.
			  
             Prepared using the Tamkin Foundation Computer Network

                              MPC at CFA.HARVARD.EDU
            URL https://www.minorplanetcenter.net/    ISSN 1523-6714

                                    2024 BK3                                    


                           Revision to MPEC 2024-B158                           

Additional Observations:
     K24B03K  C2016 02 20.62455014 51 02.514-15 14 33.05         22.14GVEC085F51
     K24B03K  C2016 02 20.63789114 51 04.739-15 14 31.58         22.86GVEC085F51
     K24B03K  C2016 03 04.59290115 24 19.143-14 22 27.13         22.89GVEC085F51
     K24B03K  C2016 03 04.60568915 24 20.745-14 22 22.26         22.60GVEC085F51
     K24B03K  C2016 03 04.61845215 24 22.361-14 22 17.41         22.61GVEC085F51
     K24B03K  C2016 03 15.57000715 44 40.336-12 55 47.44         21.96GVEC085F51
     K24B03K  C2016 03 15.58441115 44 41.530-12 55 39.43         22.28GVEC085F51
     K24B03K  C2016 05 05.47389415 44 07.838-04 36 48.67         22.22GVEC085F51
     K24B03K  C2016 05 05.48589415 44 07.060-04 36 45.01         22.76GVEC085F51
     K24B03K  C2020 01 25.56962412 45 46.099-11 57 59.88         22.80GVEC085F52
     K24B03K  C2020 01 25.59320612 45 51.086-11 58 14.96         21.87GVEC085F52
     K24B03K  C2020 01 28.54195812 56 25.805-12 28 14.60         22.17GVEC085F51
     K24B03K  C2020 01 28.55264212 56 28.042-12 28 20.56         22.08GVEC085F51
     K24B03K  C2020 01 28.56320112 56 30.211-12 28 26.54         22.00GVEC085F51
     K24B03K  C2020 03 29.57861015 18 26.769-07 51 02.37         21.72GVEC085F52
     K24B03K  C2020 03 29.61579015 18 27.406-07 50 32.91         21.62GVEC085F52
     K24B03K  C2020 04 01.57107615 19 25.241-07 11 05.84         21.82GVEC085F52
     K24B03K  C2020 04 01.58230815 19 25.308-07 10 56.49         21.79GVEC085F52
     K24B03K  C2020 04 01.59355915 19 25.378-07 10 47.42         21.75GVEC085F52
     K24B03K  C2020 04 16.45107015 17 01.090-04 08 44.37         21.74GVEC085F51
     K24B03K  C2020 04 20.47424615 14 47.652-03 28 28.97         21.87GVEC085F51
     K24B03K  C2020 04 20.51815515 14 45.731-03 28 04.51         21.68GVEC085F52
     K24B03K  C2020 04 20.52872615 14 45.290-03 27 58.28         21.41GVEC085F52
     K24B03K  C2020 04 20.53925615 14 44.829-03 27 52.27         21.03GVEC085F52
     K24B03K  C2020 04 22.48600 15 13 31.618-03 10 23.31         22.1 wUEC085F51
     K24B03K  C2020 04 22.51111 15 13 30.462-03 10 10.36         21.9 wUEC085F51
     K24B03K  C2020 04 25.47579015 11 30.846-02 46 14.55         21.96GVEC085F52
     K24B03K  C2020 04 25.48699215 11 30.311-02 46 09.68         22.23GVEC085F52
     K24B03K  C2020 04 25.49818715 11 29.748-02 46 04.21         21.97GVEC085F52
     K24B03K KC2020 04 26.46707615 10 49.321-02 38 59.87         21.77GVEC085F52
     K24B03K  C2020 05 13.38298714 59 23.911-01 36 34.36         22.50GVEC085F52
     K24B03K  C2020 05 13.39480514 59 23.449-01 36 33.96         22.04GVEC085F52

Observer details:
F51 Pan-STARRS 1, Haleakala.  Observers J. Herman, T. Lowe, P. Minguez, A.
    Schultz, I. Smith, J. Bulger, M. Willman.  Measurers K. Chambers, T. de
    Boer, J. Fairlamb, H. Gao, M. Huber, C.-C. Lin, E. Magnier, Y.
    Ramanjooloo, R. Wainscoat, R. Weryk, S. Chastel, L. Denneau, H.
    Flewelling.  1.8-m Ritchey-Chretien + CCD.
F52 Pan-STARRS 2, Haleakala.  Observers J. Herman, T. Lowe, P. Minguez, A.
    Schultz, I. Smith.  Measurers K. Chambers, T. de Boer, J. Fairlamb, H.
    Gao, M. Huber, C.-C. Lin, E. Magnier, Y. Ramanjooloo, R. Wainscoat, R.
    Weryk.  1.8-m Ritchey-Chretien + CCD.

Orbital elements:
2024 BK3                                                 Earth MOID = 0.2555 AU
Epoch 2023 Sept. 13.0 TT = JDT 2460200.5                Veres                   
M 318.12072              (2000.0)            P               Q                  
n   0.24464518     Peri.  350.39779     -0.94674904     -0.32145843             
a   2.5318906      Node   170.78921     +0.30243034     -0.90724488             
e   0.5071570      Incl.    6.52375     +0.11046332     -0.27124013             
P   4.03           H   22.06          G   0.15           U   1                  
Residuals in seconds of arc
160220 F51  0.0   0.5-    200416 F51  0.2+  0.2+    240105 F52  0.1-  0.1-
160220 F51  0.2-  0.3-    200420 F51  0.1+  0.0     240119 F52  0.0   0.1-
160304 F51  0.1-  0.1-    200420 F52  0.1+  0.1-    240119 F52  0.0   0.3-
160304 F51  0.1-  0.0     200420 F52  0.4+  0.2+    240119 F52  0.2+  0.1-
160304 F51  0.2+  0.0     200420 F52  0.3+  0.3+    240119 F52  0.1+  0.2-
160315 F51  0.1+  0.1-    200422 F51  0.2-  0.1-    240119 F52  0.0   0.1-
160315 F51  0.1+  0.0     200422 F51  0.1-  0.1-    240119 F52  0.1+  0.1-
160505 F51  0.2+  0.1+    200425 F52  0.0   0.0     240130 691  1.3+  0.4+
160505 F51  0.1+  0.1-    200425 F52  0.1+  0.2-    240130 691  1.2+  0.5+
200125 F52  0.4-  0.7-    200425 F52  0.1-  0.3+    240130 691  1.2+  0.1+
200125 F52  0.5+  0.3-    200426 F52  0.1-  0.1-    240205 G96  0.2-  0.5-
200128 F51  0.2-  0.1-    200513 F52  0.0   0.1+    240205 G96  0.1+  0.0
200128 F51  0.0   0.1+    200513 F52  0.1+  0.2+    240205 G96  0.2-  1.4+
200128 F51  0.4-  0.2+    240103 F51  0.1-  0.0     240205 G96  1.0-  0.6+
200329 F52  0.1+  0.4+    240103 F51  0.4-  0.4+    240206 F52  0.0   0.1-
200329 F52  0.0   0.1-    240103 F51  0.1-  0.1-    240206 F52  0.0   0.2-
200401 F52  0.0   0.2-    240105 F52  0.3-  0.1-    240206 F52  0.0   0.1-
200401 F52  0.0   0.1+    240105 F52  0.2-  0.3+
200401 F52  0.1+  0.2+    240105 F52  0.0   0.0

Ephemeris:
2024 BK3                 a,e,i = 2.53, 0.51, 7                   q = 1.2478
Date    TT    R. A. (2000) Decl.     Delta      r    Elong.  Phase     V
2024 01 09    09 16 19.4 -00 49 48   0.4540  1.3733   143.0    25.6    22.2
...
2024 01 24    09 36 07.1 -02 27 46   0.3633  1.3150   151.5    20.9    21.5
...
2024 02 01    09 46 57.8 -02 34 31   0.3261  1.2904   156.3    17.9    21.1
...
2024 02 07    09 55 27.6 -02 12 32   0.3033  1.2754   160.0    15.3    20.8
2024 02 08    09 56 55.1 -02 06 25   0.2999  1.2732   160.7    14.9    20.8
2024 02 09    09 58 23.4 -01 59 36   0.2966  1.2711   161.3    14.4    20.8
...
2024 02 15    10 07 33.4 -01 03 44   0.2798  1.2602   165.3    11.5    20.5
...
2024 02 23    10 20 50.7 +00 47 01   0.2645  1.2509   170.6     7.4    20.2
...
2024 03 09    10 48 47.4 +05 21 57   0.2587  1.2499   172.7     5.8    20.1

A. U. Tomatic                (C) Copyright 2024 MPC           M.P.E.C. 2024-C85





More information about the Iaude mailing list